Weather in Tremina

Russia / Irkutsk Oblast     56°43′05″N   98°03′18″E
temp.,
°C
wind,
m/s
gust,
m/s
humid.,
%
clouds,
%
prec.,
mm/h
press.,
hPa
HPBL,
m
3 august, tue
tue323:00+14s11871 0.0 100710
02:00+12sse11942 0.0 100810
05:00+12se22965 0.0 100733
08:00+16se23804 0.0 1008154
11:00+22s23555 0.0 1008762
14:00+25ssw23468 0.0 10071418
17:00+27sw344214 0.0 10072016
20:00+23wsw11680 0.0 100711
4 august, wed
wed423:00+17n11850 0.0 100811
02:00+15e00932 0.0 100811
05:00+15e00940 0.0 100811
08:00+18ene12800 0.0 1009135
11:00+25se12560 0.0 1008702
14:00+28s11450 0.0 10071688
17:00+28w014282 0.0 10052258
20:00+22ne1170100 0.0 100514
5 august, thu
thu523:00+20ese117242 0.1 100514
02:00+16se118439 0.1 100511
05:00+15ene118736 0.0 100511
08:00+19ene1274100 0.0 1004115
11:00+25ese1250100 0.0 1004719
14:00+28w234095 0.0 10032315
17:00+19s4886100 0.8 1003224
20:00+20nw268399 1.4 1003195
6 august, fri
fri623:00+16n22919 0.0 100340
02:00+14n128656 0.0 100314
05:00+13ne119076 0.0 100212
08:00+17ne11775 0.0 1002145
11:00+23nnw115496 0.1 1002843
14:00+24n325554 0.6 10011520
17:00+23n225976 1.3 10011195
20:00+19ne2590100 2.7 100299
7 august, sat
sat723:00+16nne239698 1.5 100371
02:00+15nne229744 2.1 100326
05:00+13nne2297100 0.0 100430
08:00+15nne1395100 0.1 1005158
11:00+20n117389 0.1 1006725
14:00+21nw017732 1.8 1006768
17:00+23se1261100 1.5 10061085
20:00+20sw118478 2.8 100714